Date String (YYYY-MM-DD hh:mm:ss) UTC,Instrument flags,Ambient pressure (hPa),Sample flow (lpm),Bypass flow (lpm),Sample temperature (°C),Ambient temperature (°C),ASC tube jacket temperature (°C),LED temperature (°C),Box temperature (°C),Sample RH (%),Span deviation,Mass concentration (μg/m³),Mass concentration (μg/m³),Mass concentration (μg/m³)
DateTimeUTC,F1_M11,P_M11,Q1_M11,Q2_M11,T1_M11,T2_M11,T3_M11,T4_M11,T5_M11,U1_M11,ZSPAN_M11,X0_M11,X2_M11,X1_M11
2022-08-11 06:00:00,,0832.7,5.00,0.00,29.2,27.4,00.0,38.1,31.1,27.0,0000.0,0013.72,0005.98,0004.61
2022-08-11 06:01:00,,0832.7,5.01,0.00,29.2,27.6,00.0,38.1,31.1,27.1,0000.0,0013.67,0006.04,0004.62
2022-08-11 06:02:00,,0832.7,5.00,0.00,29.2,27.7,00.0,38.1,31.2,27.3,0000.0,0015.75,0006.07,0004.63
2022-08-11 06:03:00,,0832.7,5.00,0.00,29.3,27.9,00.0,38.1,31.2,27.3,0000.0,0015.64,0005.99,0004.64
2022-08-11 06:04:00,,0832.7,5.00,0.00,29.3,28.0,00.0,38.1,31.3,27.5,0000.0,0015.74,0006.02,0004.65
2022-08-11 06:05:00,,0832.7,5.01,0.00,29.3,28.2,00.0,38.1,31.3,27.8,0000.0,0015.73,0005.99,0004.65
2022-08-11 06:06:00,,0832.7,4.99,0.00,29.4,28.3,00.0,38.1,31.3,28.0,0000.0,0015.65,0005.98,0004.64
2022-08-11 06:07:00,,0832.7,5.00,0.00,29.4,28.4,00.0,38.1,31.4,28.2,0000.0,0015.67,0005.97,0004.63
2022-08-11 06:08:00,,0832.6,5.00,0.00,29.4,28.5,00.0,38.2,31.4,28.1,0000.0,0015.60,0005.98,0004.62
2022-08-11 06:09:00,,0832.6,5.00,0.00,29.5,28.5,00.0,38.2,31.5,28.1,0000.0,0016.10,0006.07,0004.63
2022-08-11 06:10:00,,0832.6,5.00,0.00,29.5,28.6,00.0,38.2,31.5,28.2,0000.0,0016.89,0006.15,0004.65
2022-08-11 06:11:00,,0832.6,5.01,0.00,29.5,28.4,00.0,38.2,31.4,28.2,0000.0,0016.67,0006.15,0004.66
2022-08-11 06:12:00,,0832.6,4.99,0.00,29.5,27.5,00.0,38.2,31.2,28.4,0000.0,0016.31,0006.10,0004.67
2022-08-11 06:13:00,,0832.6,5.00,0.00,29.4,27.0,00.0,38.1,31.1,29.2,0000.0,0014.30,0006.04,0004.66
2022-08-11 06:14:00,,0832.6,5.00,0.00,29.3,26.8,00.0,38.1,31.1,28.8,0000.0,0015.16,0006.13,0004.66
2022-08-11 06:15:00,,0832.6,4.99,0.00,29.3,26.9,00.0,38.1,30.9,28.9,0000.0,0015.64,0006.20,0004.66
2022-08-11 06:16:00,,0832.6,5.00,0.00,29.2,27.1,00.0,38.1,31.0,28.9,0000.0,0016.17,0006.17,0004.67
2022-08-11 06:17:00,,0832.6,5.00,0.00,29.2,27.2,00.0,38.1,31.0,28.8,0000.0,0016.71,0006.18,0004.68
2022-08-11 06:18:00,,0832.6,4.99,0.00,29.2,27.4,00.0,38.1,31.1,28.9,0000.0,0017.14,0006.20,0004.69
2022-08-11 06:19:00,,0832.6,5.01,0.00,29.2,27.6,00.0,38.1,31.1,28.8,0000.0,0017.23,0006.19,0004.70
2022-08-11 06:20:00,,0832.6,5.00,0.00,29.2,27.8,00.0,38.1,31.2,28.6,0000.0,0016.55,0006.12,0004.69
2022-08-11 06:21:00,,0832.6,5.00,0.00,29.3,27.9,00.0,38.1,31.2,28.5,0000.0,0015.53,0006.05,0004.68
2022-08-11 06:22:00,,0832.6,5.00,0.00,29.3,28.1,00.0,38.1,31.3,28.5,0000.0,0015.55,0006.07,0004.68
2022-08-11 06:23:00,,0832.6,5.00,0.00,29.3,28.2,00.0,38.1,31.3,28.4,0000.0,0016.23,0006.09,0004.68
2022-08-11 06:24:00,,0832.6,5.00,0.00,29.4,28.3,00.0,38.1,31.4,28.3,0000.0,0015.95,0006.12,0004.68
2022-08-11 06:25:00,,0832.6,5.00,0.00,29.4,28.4,00.0,38.2,31.4,28.3,0000.0,0015.24,0006.08,0004.70
2022-08-11 06:26:00,,0832.6,5.00,0.00,29.4,28.5,00.0,38.2,31.4,28.1,0000.0,0014.75,0006.00,0004.71
2022-08-11 06:27:00,,0832.6,5.00,0.00,29.5,28.6,00.0,38.2,31.5,27.9,0000.0,0014.70,0006.06,0004.71
2022-08-11 06:28:00,,0832.6,4.99,0.00,29.5,28.6,00.0,38.2,31.5,28.1,0000.0,0014.36,0006.09,0004.71
2022-08-11 06:29:00,,0832.6,5.00,0.00,29.6,28.7,00.0,38.3,31.6,28.1,0000.0,0014.25,0006.16,0004.72
2022-08-11 06:30:00,,0832.6,4.99,0.00,29.6,28.2,00.0,38.2,31.4,28.2,0000.0,0014.79,0006.21,0004.74
2022-08-11 06:31:00,,0832.6,5.00,0.00,29.5,27.3,00.0,38.2,31.2,27.9,0000.0,0015.50,0006.23,0004.77
2022-08-11 06:32:00,,0832.6,5.00,0.00,29.4,27.0,00.0,38.2,31.1,27.9,0000.0,0015.77,0006.27,0004.79
2022-08-11 06:33:00,,0832.6,5.00,0.00,29.3,26.9,00.0,38.1,31.0,28.1,0000.0,0015.62,0006.28,0004.80
2022-08-11 06:34:00,,0832.5,5.00,0.00,29.2,27.0,00.0,38.1,31.0,28.3,0000.0,0014.80,0006.30,0004.80
2022-08-11 06:35:00,,0832.5,5.00,0.00,29.2,27.2,00.0,38.1,31.0,28.3,0000.0,0014.85,0006.32,0004.81
2022-08-11 06:36:00,,0832.5,5.00,0.00,29.2,27.3,00.0,38.1,31.1,28.3,0000.0,0014.40,0006.23,0004.77
2022-08-11 06:37:00,,0832.5,5.01,0.00,29.2,27.5,00.0,38.1,31.1,28.4,0000.0,0014.24,0006.23,0004.73
2022-08-11 06:38:00,,0832.5,4.99,0.00,29.2,27.7,00.0,38.1,31.2,28.4,0000.0,0014.24,0006.17,0004.69
2022-08-11 06:39:00,,0832.6,5.01,0.00,29.3,27.8,00.0,38.1,31.2,28.3,0000.0,0014.76,0006.15,0004.67
2022-08-11 06:40:00,,0832.6,5.00,0.00,29.3,28.0,00.0,38.1,31.3,28.4,0000.0,0014.86,0006.09,0004.63
2022-08-11 06:41:00,,0832.6,4.99,0.00,29.3,28.1,00.0,38.1,31.3,28.5,0000.0,0014.79,0006.06,0004.59
2022-08-11 06:42:00,,0832.6,5.00,0.00,29.4,28.2,00.0,38.1,31.3,28.4,0000.0,0013.94,0006.06,0004.54
2022-08-11 06:43:00,,0832.6,5.00,0.00,29.4,28.3,00.0,38.2,31.4,28.3,0000.0,0013.69,0006.01,0004.50
2022-08-11 06:44:00,,0832.6,5.00,0.00,29.4,28.4,00.0,38.2,31.5,28.1,0000.0,0013.68,0005.99,0004.49
2022-08-11 06:45:00,,0832.6,5.00,0.00,29.5,28.5,00.0,38.2,31.5,27.9,0000.0,0013.87,0005.97,0004.48
2022-08-11 06:46:00,,0832.6,5.00,0.00,29.5,28.6,00.0,38.2,31.5,27.9,0000.0,0014.12,0005.94,0004.45
2022-08-11 06:47:00,,0832.6,5.00,0.00,29.5,28.6,00.0,38.3,31.5,27.8,0000.0,0014.13,0005.99,0004.46
2022-08-11 06:48:00,,0832.6,5.01,0.00,29.6,28.6,00.0,38.3,31.6,27.8,0000.0,0014.89,0005.98,0004.47
2022-08-11 06:49:00,,0832.6,4.99,0.00,29.6,27.9,00.0,38.2,31.4,27.8,0000.0,0014.76,0006.07,0004.48
2022-08-11 06:50:00,,0832.5,5.01,0.00,29.5,27.5,00.0,38.2,31.3,27.8,0000.0,0014.14,0006.06,0004.48
2022-08-11 06:51:00,,0832.5,4.99,0.00,29.5,27.4,00.0,38.2,31.2,27.9,0000.0,0013.80,0006.05,0004.48
2022-08-11 06:52:00,,0832.5,5.00,0.00,29.4,27.5,00.0,38.2,31.2,28.0,0000.0,0014.25,0006.08,0004.50
2022-08-11 06:53:00,,0832.5,5.01,0.00,29.4,27.6,00.0,38.2,31.2,28.1,0000.0,0014.89,0006.09,0004.50
2022-08-11 06:54:00,,0832.5,5.00,0.00,29.4,27.7,00.0,38.2,31.3,28.0,0000.0,0015.35,0006.16,0004.50
2022-08-11 06:55:00,,0832.4,5.00,0.00,29.4,27.9,00.0,38.2,31.3,28.0,0000.0,0015.44,0006.21,0004.50
2022-08-11 06:56:00,,0832.4,5.00,0.00,29.4,28.0,00.0,38.2,31.4,28.0,0000.0,0015.27,0006.24,0004.50
2022-08-11 06:57:00,,0832.5,5.01,0.00,29.5,28.2,00.0,38.2,31.4,28.1,0000.0,0015.27,0006.27,0004.52
2022-08-11 06:58:00,,0832.5,5.00,0.00,29.5,28.3,00.0,38.3,31.4,28.1,0000.0,0016.36,0006.32,0004.52
2022-08-11 06:59:00,,0832.5,5.00,0.00,29.5,28.4,00.0,38.3,31.5,28.0,0000.0,0017.00,0006.37,0004.53
